Content
SEND FEEDBACK

Daily
Averages
Monthly
Summary
United States of America

SPICEWOOD, TEXAS


Home > North America > United States > Texas
Elevation: 870 feet     Latitude: 30 27N     Longitude: 098 10W

WEATHER
 
SELECT A DAY
Number of Records: 154,085;   Date Range: 4/11/08 - 9/17/14
 
SHARE

PRINT THIS DATA

[ ← Previous Day ]
WEATHER ALMANAC - JANUARY 31, 2013
[ Next Day → ]
[ °C ]   °F
Weather ElementAverageHighLow
Temperature52.4 °F66.2 °F (2:35 pm)39.2 °F (4:55 am)
Dewpoint17.9 °F21.2 °F (10:55 am)14 °F (11:55 am)
Humidity27.6 %45 % (5:15 am)14 % (1:35 pm)
Barometer30.22 in30.28 in (10:15 am)30.17 in (4:35 pm)
Wind Speed7.7 mph12.7 mph (1:15 pm)
Wind Gust20.7 mph (1:35 pm)
Weather ElementAverage
Visibility10 mi
Wind DirectionWSW (230.7 °)

Weather ElementTotal
Precipitation---
Heating Degree Days12.3 (Base 65)
Growing Degree Days2.7 (Base 50)
Averaged from 70 records on January 31, 2013
WEATHER CONDITIONS BREAKOUT
WIND DIRECTION BREAKOUT
WEATHER BY HOUR - JANUARY 31, 2013
[ °C ]   °F
Local TimeTemperatureDewpointHumidityBarometerVisibilityWind DirectionWind SpeedGust SpeedPrecipitationEventsConditions
12:35 AM42.8 °F15.8 °F34 %30.21 in10.0 miSW (230°)6.9 mphClear
12:55 AM42.8 °F17.6 °F36 %30.21 in10.0 miWSW (250°)6.9 mphClear
1:15 AM42.8 °F17.6 °F36 %30.20 in10.0 miWSW (250°)8.1 mphClear
1:35 AM41.0 °F17.6 °F39 %30.21 in10.0 miWSW (240°)8.1 mphClear
1:55 AM41.0 °F17.6 °F39 %30.19 in10.0 miWest (260°)6.9 mphClear
2:15 AM41.0 °F17.6 °F39 %30.20 in10.0 miWSW (250°)8.1 mphClear
2:35 AM41.0 °F17.6 °F39 %30.19 in10.0 miWest (260°)6.9 mphClear
2:55 AM41.0 °F17.6 °F39 %30.18 in10.0 miWSW (250°)5.8 mphClear
3:15 AM41.0 °F17.6 °F39 %30.18 in10.0 miWest (260°)6.9 mphClear
3:35 AM41.0 °F17.6 °F39 %30.19 in10.0 miWSW (250°)6.9 mphClear
3:55 AM41.0 °F17.6 °F39 %30.19 in10.0 miWSW (240°)8.1 mphClear
4:15 AM41.0 °F17.6 °F39 %30.19 in10.0 miSW (230°)8.1 mphClear
4:35 AM41.0 °F17.6 °F39 %30.18 in10.0 miWSW (250°)8.1 mphClear
4:55 AM39.2 °F17.6 °F42 %30.18 in10.0 miWSW (240°)9.2 mphClear
5:15 AM39.2 °F19.4 °F45 %30.18 in10.0 miWSW (250°)8.1 mphClear
5:35 AM39.2 °F17.6 °F42 %30.20 in10.0 miSW (230°)9.2 mphClear
5:55 AM39.2 °F17.6 °F42 %30.20 in10.0 miWSW (250°)10.4 mphClear
6:15 AM39.2 °F17.6 °F42 %30.20 in10.0 miWSW (250°)9.2 mphClear
6:55 AM39.2 °F17.6 °F42 %30.22 in10.0 miWSW (250°)9.2 mphClear
7:15 AM39.2 °F17.6 °F42 %30.23 in10.0 miWest (260°)6.9 mphClear
7:35 AM39.2 °F17.6 °F42 %30.23 in10.0 miWSW (250°)6.9 mphClear
7:55 AM41.0 °F17.6 °F39 %30.23 in10.0 miWSW (250°)6.9 mphClear
8:15 AM41.0 °F15.8 °F36 %30.24 in10.0 miWSW (250°)8.1 mphClear
8:35 AM42.8 °F15.8 °F34 %30.25 in10.0 miWSW (240°)9.2 mphClear
8:55 AM44.6 °F15.8 °F31 %30.26 in10.0 miWSW (250°)5.8 mphClear
9:15 AM44.6 °F17.6 °F34 %30.26 in10.0 miWSW (240°)6.9 mphClear
9:35 AM46.4 °F17.6 °F32 %30.26 in10.0 miSW (230°)8.1 mphClear
9:55 AM46.4 °F17.6 °F32 %30.27 in10.0 miWSW (240°)6.9 mphClear
10:15 AM50.0 °F17.6 °F28 %30.28 in10.0 miSW (230°)10.4 mphClear
10:35 AM50.0 °F19.4 °F30 %30.28 in10.0 miSW (220°)9.2 mphClear
10:55 AM53.6 °F21.2 °F28 %30.28 in10.0 miWSW (250°)9.2 mphClear
11:15 AM55.4 °F19.4 °F25 %30.28 in10.0 miWSW (240°)9.2 mphClear
11:35 AM59.0 °F17.6 °F20 %30.27 in10.0 miSW (230°)10.4 mphClear
11:55 AM60.8 °F14.0 °F16 %30.27 in10.0 miSSW (200°)9.2 mphClear
12:15 PM62.6 °F15.8 °F16 %30.26 in10.0 miSW (220°)9.2 mphClear
12:35 PM62.6 °F15.8 °F16 %30.25 in10.0 miSW (230°)9.2 mphClear
12:55 PM62.6 °F15.8 °F16 %30.24 in10.0 miSouth (190°)11.5 mphClear
1:15 PM64.4 °F15.8 °F15 %30.22 in10.0 miSW (220°)12.7 mph19.6 mphClear
1:35 PM64.4 °F14.0 °F14 %30.21 in10.0 miSSW (210°)10.4 mph20.7 mphClear
1:55 PM64.4 °F14.0 °F14 %30.20 in10.0 miSW (220°)11.5 mph18.4 mphClear
2:15 PM64.4 °F15.8 °F15 %30.19 in10.0 miSW (230°)8.1 mphClear
2:35 PM66.2 °F15.8 °F14 %30.19 in10.0 miSSW (200°)9.2 mph20.7 mphClear
2:55 PM66.2 °F15.8 °F14 %30.18 in10.0 miSouth (190°)10.4 mphClear
3:15 PM66.2 °F15.8 °F14 %30.19 in10.0 miSSW (200°)10.4 mph18.4 mphClear
3:35 PM66.2 °F15.8 °F14 %30.19 in10.0 miWSW (250°)9.2 mphClear
3:55 PM66.2 °F15.8 °F14 %30.18 in10.0 miWSW (240°)9.2 mphClear
4:15 PM64.4 °F15.8 °F15 %30.18 in10.0 miWSW (240°)5.8 mph16.1 mphClear
4:35 PM64.4 °F15.8 °F15 %30.17 in10.0 miWSW (240°)9.2 mphClear
4:55 PM64.4 °F17.6 °F16 %30.17 in10.0 miSW (220°)6.9 mphClear
5:15 PM64.4 °F17.6 °F16 %30.18 in10.0 miSSW (210°)11.5 mph16.1 mphClear
5:35 PM62.6 °F17.6 °F18 %30.17 in10.0 miSSW (200°)6.9 mphClear
5:55 PM62.6 °F19.4 °F19 %30.17 in10.0 miSSW (200°)4.6 mphClear
6:15 PM60.8 °F19.4 °F20 %30.18 in10.0 miSSW (200°)5.8 mphClear
6:35 PM60.8 °F19.4 °F20 %30.20 in10.0 miSSW (200°)4.6 mphClear
6:55 PM60.8 °F19.4 °F20 %30.20 in10.0 miSSW (200°)6.9 mphClear
7:15 PM59.0 °F19.4 °F22 %30.21 in10.0 miSSW (200°)6.9 mphClear
7:35 PM59.0 °F19.4 °F22 %30.23 in10.0 miSSW (200°)6.9 mphClear
7:55 PM59.0 °F19.4 °F22 %30.23 in10.0 miSSW (200°)4.6 mphClear
8:15 PM59.0 °F19.4 °F22 %30.24 in10.0 miSSW (210°)4.6 mphClear
8:35 PM57.2 °F19.4 °F23 %30.25 in10.0 miSW (220°)4.6 mphClear
8:55 PM55.4 °F21.2 °F26 %30.25 in10.0 miSW (230°)3.5 mphClear
9:15 PM55.4 °F21.2 °F26 %30.25 in10.0 miSW (220°)4.6 mphClear
9:35 PM55.4 °F21.2 °F26 %30.26 in10.0 miSW (230°)5.8 mphClear
9:55 PM55.4 °F21.2 °F26 %30.26 in10.0 miSW (230°)5.8 mphClear
10:15 PM55.4 °F21.2 °F26 %30.26 in10.0 miSW (230°)4.6 mphClear
10:35 PM55.4 °F21.2 °F26 %30.26 in10.0 miSW (230°)5.8 mphClear
10:55 PM53.6 °F21.2 °F28 %30.27 in10.0 miWSW (240°)6.9 mphClear
11:15 PM53.6 °F21.2 °F28 %30.27 in10.0 miWSW (250°)5.8 mphClear
11:35 PM53.6 °F21.2 °F28 %30.27 in10.0 miWSW (240°)5.8 mphClear
11:55 PM53.6 °F21.2 °F28 %30.26 in10.0 miWSW (240°)4.6 mphClear
Hourly data recorded from KRYW, located miles away from Spicewood, Texas







STORIES FROM OUR PARTNERS